Location: Chatou
(48.8898°N, 2.1586°E)
Time: 22:37:23
(UTC+00:00)

Cosmos 1544 Rocket - Visible Passes

Search period start: 22 September 2023 00:00
Search period end: 02 October 2023 00:00
Orbit: 602 x 629 km, 82.5° (Epoch: 22 September)

Date Brightness Start Highest point End Pass type
(mag) Time Alt. Az. Time Alt. Az. Time Alt. Az.
22 Sep 6.4 01:59:16 11° NNW 01:59:16 11° NNW 01:59:27 10° NNW visible
23 Sep 6.8 00:38:28 10° NNE 00:38:28 10° NNE 00:38:30 10° NNE visible
24 Sep 6.8 00:54:45 10° N 00:54:45 10° N 00:54:46 10° N visible
